TimeMST,TemperatureF,Dew PointF,Humidity,Sea Level PressureIn,VisibilityMPH,Wind Direction,Wind SpeedMPH,Gust SpeedMPH,PrecipitationIn,Events,Conditions,WindDirDegrees,DateUTC
12:00 AM,70.5,46.4,42,29.92,-9999.0,NNW,2.3,-,N/A,,Unknown,340,2013-09-15 07:00:00
1:00 AM,68.4,47.3,47,29.92,-9999.0,East,1.2,-,N/A,,Unknown,80,2013-09-15 08:00:00
2:00 AM,66.4,46.9,50,29.92,-9999.0,NW,3.5,-,N/A,,Unknown,310,2013-09-15 09:00:00
3:00 AM,63.3,47.5,56,29.93,-9999.0,North,2.3,-,N/A,,Unknown,360,2013-09-15 10:00:00
4:00 AM,65.3,48.7,55,29.93,-9999.0,ESE,2.3,-,N/A,,Unknown,120,2013-09-15 11:00:00
5:00 AM,64,48,45,29.93,,ESE,2.3,,,,,110,2013-09-15 12:00:00
5:00 AM,64.2,47.8,55,29.93,-9999.0,ESE,2.3,-,N/A,,Unknown,110,2013-09-15 12:00:00
6:00 AM,62.2,47.7,59,29.95,-9999.0,West,1.2,-,N/A,,Unknown,260,2013-09-15 13:00:00
7:00 AM,60.8,48.4,64,29.95,-9999.0,NW,3.5,-,N/A,,Unknown,320,2013-09-15 14:00:00
8:00 AM,62.4,50.2,64,29.94,-9999.0,ESE,3.5,-,N/A,,Unknown,120,2013-09-15 15:00:00
9:00 AM,67.3,52.3,59,29.93,-9999.0,WSW,2.3,-,N/A,,Unknown,240,2013-09-15 16:00:00
10:00 AM,72.3,53.1,51,29.91,-9999.0,SSW,1.2,-,N/A,,Unknown,200,2013-09-15 17:00:00
11:00 AM,75,52,34,29.88,,WSW,2.3,,,,,240,2013-09-15 18:00:00
11:00 AM,74.8,52.2,45,29.88,-9999.0,WSW,2.3,-,N/A,,Unknown,240,2013-09-15 18:00:00
12:00 PM,79.0,52.7,40,29.86,-9999.0,WNW,3.5,-,N/A,,Unknown,290,2013-09-15 19:00:00
1:00 PM,81.9,46.8,29,29.83,-9999.0,WNW,3.5,-,N/A,,Unknown,300,2013-09-15 20:00:00
2:00 PM,86.0,47.8,27,29.80,-9999.0,WNW,3.5,-,N/A,,Unknown,300,2013-09-15 21:00:00
3:00 PM,85.8,46.9,26,29.76,-9999.0,NW,3.5,-,N/A,,Unknown,310,2013-09-15 22:00:00
4:00 PM,88.7,46.4,23,29.73,-9999.0,ESE,1.2,-,N/A,,Unknown,120,2013-09-15 23:00:00
5:00 PM,85,49,19,29.73,,WNW,2.3,,,,,290,2013-09-16 00:00:00
5:00 PM,84.9,49.1,29,29.73,-9999.0,WNW,2.3,-,N/A,,Unknown,290,2013-09-16 00:00:00
6:00 PM,82.0,50.0,33,29.71,-9999.0,ENE,3.5,-,N/A,,Unknown,70,2013-09-16 01:00:00
7:00 PM,78.4,54.1,43,29.70,-9999.0,NNE,2.3,-,N/A,,Unknown,20,2013-09-16 02:00:00
8:00 PM,77.0,51.3,40,29.69,-9999.0,North,3.5,-,N/A,,Unknown,360,2013-09-16 03:00:00
9:00 PM,73.9,52.3,47,29.70,-9999.0,NNW,4.6,-,N/A,,Unknown,330,2013-09-16 04:00:00
10:00 PM,71.8,52.9,51,29.69,-9999.0,NNW,3.5,-,N/A,,Unknown,340,2013-09-16 05:00:00
11:00 PM,70,54,46,29.67,,North,2.3,,,,,0,2013-09-16 06:00:00
11:00 PM,69.8,53.6,56,29.67,-9999.0,North,2.3,-,N/A,,Unknown,360,2013-09-16 06:00:00